Location: Unspecified
(0.0000°N, 0.0000°E)
Time: 18:13:42
(UTC+00:00)

Transit 2A Rocket - All Passes

Search period start: 01 August 2015 00:00
Search period end: 11 August 2015 00:00
Orbit: 591 x 915 km, 66.7° (Epoch: 31 July)

Date Brightness Start Highest point End Pass type
(mag) Time Alt. Az. Time Alt. Az. Time Alt. Az.
01 Aug - 07:06:24 10° NNW 07:10:37 71° ENE 07:14:58 10° SSE daylight
01 Aug - 17:55:01 10° SSE 17:58:27 16° ESE 18:02:14 10° ENE daylight
01 Aug - 19:35:20 10° SW 19:41:08 44° WNW 19:46:45 10° N visible
02 Aug - 06:24:54 10° N 06:28:32 28° ENE 06:32:18 10° SE daylight
02 Aug - 08:10:09 10° WSW 08:11:04 10° WSW 08:11:38 10° WSW daylight
02 Aug - 18:52:53 10° SSW 18:59:02 85° WNW 19:05:01 10° NNE visible
03 Aug - 05:44:49 10° NE 05:46:21 12° ENE 05:48:11 10° E daylight
03 Aug - 07:25:16 10° NW 07:28:48 24° WSW 07:32:20 10° SSW daylight
03 Aug - 18:11:02 10° S 18:16:54 50° ESE 18:22:42 10° NE daylight
03 Aug - 19:56:23 10° W 19:59:33 14° WNW 20:02:12 10° NW visible
04 Aug - 06:42:28 10° NNW 06:46:39 60° WSW 06:50:59 10° S daylight
04 Aug - 17:29:49 10° SSE 17:34:42 26° ESE 17:39:42 10° NE daylight
04 Aug - 19:12:09 10° SW 19:17:18 27° WNW 19:22:10 10° NNW visible
05 Aug - 06:00:27 10° N 06:04:35 53° ENE 06:08:51 10° SSE daylight
05 Aug - 16:49:56 10° SE 16:52:23 13° ESE 16:55:18 10° E daylight
05 Aug - 18:29:12 10° SSW 18:35:09 53° WNW 18:40:55 10° N visible
06 Aug - 05:19:13 10° NNE 05:22:29 22° ENE 05:25:56 10° ESE visible
06 Aug - 07:02:40 10° W 07:04:58 14° WSW 07:07:04 10° SW daylight
06 Aug - 17:46:55 10° SSW 17:53:03 80° ESE 17:59:01 10° NNE daylight
07 Aug - 06:18:55 10° NW 06:22:44 31° WSW 06:26:38 10° S daylight
07 Aug - 17:05:13 10° S 17:10:54 41° ESE 17:16:31 10° NE daylight
07 Aug - 18:49:33 10° WSW 18:53:30 17° WNW 18:57:03 10° NNW visible
08 Aug - 05:36:23 10° NNW 05:40:38 79° WSW 05:45:01 10° SSE visible
08 Aug - 16:24:17 10° SSE 16:28:40 21° ESE 16:33:15 10° ENE daylight
08 Aug - 18:05:50 10° SW 18:11:18 33° WNW 18:16:30 10° N daylight
09 Aug - 04:54:33 10° N 04:58:33 40° ENE 05:02:42 10° SE visible
09 Aug - 15:45:53 10° ESE 15:46:19 10° ESE 15:47:21 10° ESE daylight
09 Aug - 17:23:07 10° SSW 17:29:10 65° WNW 17:35:02 10° N daylight
10 Aug - 04:13:41 10° NNE 04:16:25 17° ENE 04:19:24 10° ESE visible
10 Aug - 05:55:54 10° WNW 05:58:53 18° WSW 06:01:46 10° SSW daylight
10 Aug - 16:41:00 10° SSW 16:47:03 66° ESE 16:52:58 10° NNE daylight
